www.pogodaiklimat.ru

Погода и климат >> Архив погоды >> Канарские Острова >> Санта-Круз-де-Тенерифе


АРХИВ ПОГОДЫ в Санта-Круз-де-Тенерифе

Время (UTC), дата Ветер
(напр.,м/с)
 
Видим.   Явления Облачность Т
(С)
Тd
(С)
f
(%)
Тe
(С)
Тes
(С)
Комфортность P
(гПа)
Po
(гПа)
Тmin
(С)
Tmax
(С)
R
(мм)
R24
(мм)
S
(см)
01 10.07 СЗ 3 20 км н/о +21.8 +14.4 63 +25 +25 комфорт 1018.6 1014.4
02 10.07 СЗ 2 20 км н/о +21.8 +14.4 63 +25 +25 комфорт 1017.8 1013.6
03 10.07 С 2 20 км н/о +21.7 +14.8 65 +25 +25 комфорт 1017.4 1013.2
04 10.07 СЗ 2 20 км н/о +21.6 +14.5 64 +25 +25 комфорт 1017.4 1013.2
05 10.07 СЗ 3 20 км н/о +21.6 +14.5 64 +25 +25 комфорт 1017.6 1013.4
06 10.07 СЗ 3 30 км [макс. диам. градин 0 мм] 6/6 600 м
[Sc]
+21.7 +15.1 66 +25 +25 комфорт 1017.5 1013.3 +21.5
07 10.07 С 5 20 км н/о +21.9 +14.5 63 +25 +25 комфорт 1017.6 1013.4
08 10.07 СЗ 4 20 км н/о +22.7 +15.3 63 +27 +27 душно 1017.7 1013.5
09 10.07 С 2 30 км {морось} [макс. диам. градин 0 мм] 9/9 600 м
[Cu Sc]
+22.7 +15.5 64 +27 +27 душно 1018.0 1013.8
10 10.07 С 3 20 км н/о +24.3 +15.0 56 +27 +27 жарко 1017.9 1013.7
11 10.07 С 5 20 км н/о +25.7 +15.1 52 +29 +29 душно 1018.1 1013.9
12 10.07 С 5 30 км {морось} [макс. диам. градин 0 мм] 8/8 600 м
[Cu Sc]
+25.6 +14.7 51 +28 +30 жарко 1018.2 1014.0 0.0
13 10.07 С 5 20 км н/о +26.1 +14.5 49 +29 +29 жарко 1017.6 1013.5
14 10.07 С 4 20 км н/о +26.4 +13.8 46 +29 +29 жарко 1017.3 1013.2
15 10.07 С 4 20 км н/о +26.2 +14.3 48 +29 +29 жарко 1016.6 1012.5
16 10.07 С 5 20 км н/о +26.8 +14.2 46 +29 +29 жарко 1016.2 1012.1
17 10.07 С 5 20 км н/о +26.0 +14.1 48 +28 +28 жарко 1016.1 1012.0
18 10.07 С 4 20 км дымка н/о +25.6 +13.8 48 +28 +28 жарко 1015.8 1011.7 +27.0 0.0
19 10.07 С 3 20 км н/о +23.9 +14.3 55 +26 +26 жарко 1016.1 1011.9
20 10.07 С 3 20 км н/о +23.1 +14.6 59 +27 +27 душно 1016.6 1012.4
21 10.07 С 2 20 км н/о +22.4 +14.0 59 +26 +26 жарко 1017.1 1012.9
22 10.07 С 3 20 км н/о +22.4 +14.3 60 +26 +26 жарко 1017.4 1013.2
23 10.07 С 2 20 км н/о +22.3 +14.4 61 +26 +26 жарко 1018.0 1013.8
00 11.07 С 2 20 км н/о +22.1 +14.2 61 +25 +25 комфорт 1017.9 1013.7
01 11.07 С 2 20 км н/о +21.9 +14.0 61 +25 +25 комфорт 1017.5 1013.3
02 11.07 СЗ 2 20 км н/о +21.9 +15.0 65 +25 +25 комфорт 1016.8 1012.6
03 11.07 СЗ 2 20 км н/о +22.1 +14.2 61 +25 +25 комфорт 1016.5 1012.3
04 11.07 СЗ 3 20 км н/о +21.9 +13.8 60 +25 +25 комфорт 1016.0 1011.8
05 11.07 С 2 20 км н/о +22.0 +14.4 62 +25 +25 комфорт 1015.8 1011.6
06 11.07 С 3 30 км [макс. диам. градин 0 мм] 6/6 600 м
[Sc]
+21.8 +14.2 62 +25 +25 комфорт 1016.2 1012.0 +21.8 0.0
07 11.07 С 1 20 км н/о +22.0 +13.9 60 +25 +25 комфорт 1016.5 1012.3
08 11.07 ЮЗ 2 20 км н/о +23.3 +14.3 57 +27 +27 душно 1016.9 1012.7
09 11.07 С 1 20 км н/о +24.8 +14.9 54 +28 +28 жарко 1017.2 1013.0
10 11.07 З 4 20 км н/о +25.6 +15.0 52 +28 +28 жарко 1017.3 1013.1
11 11.07 СЗ 3 20 км н/о +24.8 +15.1 55 +28 +28 жарко 1017.2 1013.0
12 11.07 С 4 20 км н/о +25.9 +14.4 49 +28 +28 жарко 1016.9 1012.8
13 11.07 СЗ 5 20 км н/о +26.1 +15.8 53 +29 +29 жарко 1016.5 1012.4
14 11.07 С 5 20 км н/о +26.8 +15.8 51 +30 +30 душно 1016.2 1012.1
15 11.07 С 5 20 км н/о +26.9 +14.6 47 +29 +29 жарко 1015.8 1011.7
16 11.07 СЗ 6 20 км н/о +27.0 +14.1 45 +29 +29 жарко 1015.5 1011.4
17 11.07 С 7 20 км н/о +26.4 +13.5 45 +28 +28 жарко 1015.4 1011.3
18 11.07 С 7 20 км н/о +25.5 +14.9 52 +28 +28 жарко 1015.6 1011.5 +27.4
19 11.07 С 6 20 км н/о +24.0 +15.0 57 +27 +27 жарко 1016.2 1012.0
20 11.07 С 5 20 км н/о +23.1 +14.6 59 +27 +27 душно 1016.9 1012.7
21 11.07 СЗ 4 20 км н/о +22.7 +14.5 60 +26 +26 жарко 1017.4 1013.2
22 11.07 С 4 20 км н/о +22.7 +14.3 59 +26 +26 жарко 1017.8 1013.6
23 11.07 СЗ 3 20 км н/о +22.5 +14.3 60 +26 +26 жарко 1018.3 1014.1
00 12.07 С 3 20 км н/о +22.1 +14.7 63 +25 +25 комфорт 1018.0 1013.8
01 12.07 СЗ 1 20 км н/о +21.8 +14.4 63 +25 +25 комфорт 1017.7 1013.5
02 12.07 Ю 2 20 км н/о +21.2 +14.6 66 +24 +24 комфорт 1017.3 1013.1
03 12.07 СЗ 2 20 км н/о +21.0 +14.6 67 +25 +25 комфорт 1017.1 1012.9
04 12.07 З 1 20 км н/о +20.8 +14.7 68 +25 +25 комфорт 1017.0 1012.8
05 12.07 З 1 20 км н/о +20.6 +14.5 68 +25 +25 комфорт 1016.9 1012.7
06 12.07 С 1 20 км н/о +20.5 +14.4 68 +24 +24 комфорт 1017.3 1013.1 +20.5
07 12.07 СЗ 1 20 км н/о +21.0 +14.4 66 +25 +25 комфорт 1017.9 1013.7
08 12.07 Ю 1 20 км н/о +23.3 +15.4 61 +28 +28 душно 1018.5 1014.3
09 12.07 В 2 20 км н/о +24.8 +15.7 57 +28 +28 жарко 1018.6 1014.4
10 12.07 ЮВ 3 20 км н/о +25.8 +16.1 55 +29 +29 душно 1018.5 1014.3
11 12.07 ЮЗ 3 20 км н/о +27.2 +16.5 52 +31 +31 душно 1018.5 1014.4
12 12.07 В 2 20 км н/о +27.5 +16.1 50 +31 +31 душно 1018.3 1014.2
13 12.07 В 4 20 км н/о +27.6 +17.7 55 +32 +32 очень
душно
1017.9 1013.8
14 12.07 В 5 20 км н/о +26.7 +18.0 59 +31 +31 душно 1017.5 1013.4
15 12.07 В 4 20 км н/о +26.1 +17.7 60 +30 +30 душно 1017.7 1013.6
16 12.07 ЮВ 4 20 км н/о +26.8 +17.8 58 +31 +31 душно 1017.3 1013.2
17 12.07 ЮВ 2 20 км н/о +27.7 +16.9 52 +32 +32 очень
душно
1017.0 1012.9
18 12.07 ЮВ 3 20 км н/о +27.5 +15.8 49 +31 +31 душно 1017.3 1013.2 +28.3
19 12.07 ЮЗ 3 20 км н/о +26.3 +15.0 50 +29 +29 жарко 1017.5 1013.4
20 12.07 ЮВ 2 20 км н/о +24.8 +14.9 54 +28 +28 жарко 1018.2 1014.0
21 12.07 З 2 20 км н/о +23.9 +15.7 60 +27 +27 жарко 1018.6 1014.4
22 12.07 В 2 20 км н/о +23.3 +16.8 67 +28 +28 душно 1019.0 1014.8
23 12.07 В 1 20 км н/о +22.8 +16.8 69 +28 +28 душно 1019.2 1015.0
00 13.07 ЮВ 1 20 км н/о +22.4 +17.1 72 +27 +27 душно 1019.1 1014.9
01 13.07 Ю 1 20 км н/о +21.9 +16.6 72 +26 +26 душно 1018.5 1014.3
02 13.07 ЮЗ 1 20 км н/о +21.7 +15.8 69 +25 +25 комфорт 1018.1 1013.9
03 13.07 Ю 2 20 км н/о +21.8 +15.4 67 +25 +25 комфорт 1017.7 1013.5
04 13.07 З 1 20 км н/о +21.6 +14.0 62 +24 +24 комфорт 1017.3 1013.1
05 13.07 СЗ 1 20 км н/о +21.4 +13.8 62 +24 +24 комфорт 1017.4 1013.2
06 13.07 С 1 20 км н/о +21.4 +13.8 62 +24 +24 комфорт 1017.6 1013.4 +21.3
07 13.07 ЮВ 1 20 км н/о +21.4 +13.8 62 +24 +24 комфорт 1018.2 1014.0
08 13.07 ЮВ 2 20 км н/о +24.5 +16.2 60 +28 +28 душно 1018.7 1014.5
09 13.07 В 2 20 км н/о +25.3 +15.9 56 +29 +29 душно 1019.0 1014.8
10 13.07 В 4 20 км н/о +26.5 +16.4 54 +30 +30 душно 1018.7 1014.6
11 13.07 В 4 20 км н/о +26.7 +17.2 56 +31 +31 душно 1018.7 1014.6
12 13.07 В 6 20 км н/о +26.0 +17.9 61 +30 +30 душно 1018.9 1014.8
13 13.07 В 3 20 км н/о +26.6 +18.2 60 +31 +31 душно 1018.6 1014.5
14 13.07 В 4 20 км н/о +27.0 +17.8 57 +31 +31 душно 1018.0 1013.9
15 13.07 В 4 20 км н/о +28.6 +17.8 52 +33 +33 очень
душно
1017.3 1013.2
16 13.07 В 3 20 км н/о +30.5 +16.5 43 +34 +34 очень
душно
1017.0 1012.9
17 13.07 В 2 20 км н/о +30.2 +16.6 44 +34 +34 очень
душно
1016.8 1012.7
18 13.07 З 5 20 км н/о +28.5 +16.7 49 +32 +32 душно 1016.8 1012.7 +30.8
19 13.07 З 5 20 км н/о +26.1 +16.6 56 +30 +30 душно 1017.1 1013.0
20 13.07 З 3 20 км н/о +25.2 +16.1 57 +29 +29 душно 1017.9 1013.7
21 13.07 З 4 20 км н/о +24.0 +16.0 61 +27 +27 жарко 1018.4 1014.2
22 13.07 Ю 2 20 км н/о +23.8 +16.6 64 +27 +27 жарко 1019.0 1014.8
23 13.07 Ю 1 20 км н/о +23.4 +16.9 67 +29 +29 душно 1019.1 1014.9
00 14.07 Ю 1 20 км н/о +22.8 +16.8 69 +28 +28 душно 1018.8 1014.6
01 14.07 Ю 2 20 км н/о +22.5 +16.5 69 +27 +27 душно 1018.2 1014.0
02 14.07 ЮВ 2 20 км н/о +22.5 +16.5 69 +27 +27 душно 1017.7 1013.5
03 14.07 ЮЗ 2 20 км н/о +22.3 +16.6 70 +27 +27 душно 1017.2 1013.0
04 14.07 Ю 1 20 км н/о +21.9 +16.8 73 +26 +26 душно 1017.0 1012.8
05 14.07 ЮВ 1 20 км н/о +21.5 +17.1 76 +25 +25 комфорт 1016.6 1012.4
06 14.07 ЮЗ 1 20 км н/о +21.7 +16.6 73 +26 +26 душно 1016.7 1012.5 +21.4
07 14.07 ЮВ 1 20 км н/о +21.8 +16.5 72 +26 +26 душно 1017.1 1012.9
08 14.07 ЮВ 1 20 км н/о +24.5 +17.2 64 +28 +28 душно 1017.2 1013.0
09 14.07 ЮВ 3 20 км н/о +25.7 +16.8 58 +29 +29 душно 1017.3 1013.2
10 14.07 ЮВ 2 20 км н/о +27.0 +16.6 53 +31 +31 душно 1017.6 1013.5
11 14.07 ЮВ 2 20 км н/о +28.5 +16.1 47 +32 +32 душно 1017.5 1013.4
12 14.07 З 4 20 км н/о +29.0 +16.2 46 +32 +32 душно 1017.4 1013.3
13 14.07 СЗ 2 20 км н/о +29.6 +17.1 47 +33 +33 душно 1017.2 1013.1
14 14.07 З 5 20 км н/о +28.9 +18.4 53 +34 +34 очень
душно
1016.7 1012.6
15 14.07 С 4 20 км н/о +29.5 +18.0 50 +34 +34 очень
душно
1016.4 1012.3
16 14.07 СЗ 5 20 км н/о +28.6 +18.4 54 +33 +33 очень
душно
1016.1 1012.0
17 14.07 СЗ 6 20 км н/о +27.5 +18.8 59 +33 +33 очень
душно
1016.1 1012.0
18 14.07 СЗ 6 20 км н/о +26.6 +18.5 61 +31 +31 душно 1016.1 1012.0 +29.9
19 14.07 СЗ 4 20 км н/о +25.4 +18.1 64 +30 +30 душно 1016.5 1012.4
20 14.07 СЗ 4 20 км н/о +24.1 +16.9 64 +28 +28 душно 1016.9 1012.7
21 14.07 С 3 20 км н/о +23.7 +17.0 66 +27 +27 жарко 1017.3 1013.1
22 14.07 З 2 20 км н/о +23.6 +17.1 67 +27 +27 жарко 1017.4 1013.2
23 14.07 СЗ 4 20 км н/о +23.3 +17.1 68 +28 +28 душно 1017.4 1013.2
00 15.07 СЗ 4 20 км н/о +23.3 +16.3 65 +28 +28 душно 1016.9 1012.7
01 15.07 СЗ 5 20 км н/о +23.2 +16.5 66 +28 +28 душно 1016.2 1012.0
02 15.07 СЗ 3 20 км н/о +23.1 +15.9 64 +28 +28 душно 1015.7 1011.5
03 15.07 СЗ 3 20 км н/о +22.9 +16.0 65 +27 +27 душно 1015.7 1011.5
04 15.07 ЮВ 1 20 км н/о +22.5 +16.1 67 +27 +27 душно 1015.5 1011.3
05 15.07 ЮЗ 1 20 км н/о +22.4 +16.7 70 +27 +27 душно 1015.7 1011.5
06 15.07 СВ 2 17 км н/о +22.6 +17.3 72 +27 +27 душно 1016.0 1011.8 +22.4
07 15.07 СВ 2 20 км н/о +23.0 +17.0 69 +28 +28 душно 1016.3 1012.1
08 15.07 СВ 2 20 км н/о +24.8 +16.8 61 +28 +28 жарко 1016.5 1012.3
09 15.07 СВ 4 20 км н/о +25.7 +17.6 61 +30 +30 душно 1016.7 1012.6
10 15.07 В 4 20 км н/о +26.2 +17.6 59 +30 +30 душно 1016.8 1012.7
11 15.07 В 4 20 км н/о +26.9 +17.1 55 +31 +31 душно 1016.9 1012.8
12 15.07 В 4 20 км н/о +28.1 +17.0 51 +32 +32 душно 1016.5 1012.4
13 15.07 СВ 4 20 км н/о +29.2 +17.1 48 +33 +33 очень
душно
1015.8 1011.7
14 15.07 СВ 4 20 км н/о +29.3 +16.5 46 +33 +33 душно 1015.3 1011.2
15 15.07 В 4 20 км н/о +29.7 +16.5 45 +33 +33 душно 1015.0 1010.9
16 15.07 ЮВ 3 20 км н/о +30.2 +17.3 46 +34 +34 очень
душно
1014.7 1010.6
17 15.07 ЮВ 3 20 км н/о +28.8 +16.7 48 +32 +32 душно 1014.8 1010.7
18 15.07 СЗ 3 20 км н/о +28.0 +16.3 49 +31 +31 душно 1014.8 1010.7 +30.5
19 15.07 С 3 20 км н/о +25.9 +15.9 54 +29 +29 душно 1015.1 1011.0
20 15.07 В 3 20 км н/о +24.2 +16.7 63 +28 +28 душно 1015.7 1011.5
21 15.07 ЮВ 2 20 км н/о +23.6 +16.6 65 +27 +27 жарко 1016.2 1012.0
22 15.07 В 1 20 км н/о +23.2 +16.3 65 +28 +28 душно 1016.6 1012.4
23 15.07 В 1 20 км н/о +23.0 +16.5 67 +28 +28 душно 1016.6 1012.4
00 16.07 Ю 2 20 км н/о +22.5 +16.1 67 +27 +27 душно 1016.3 1012.1
01 16.07 Ю 2 20 км н/о +22.3 +16.1 68 +26 +26 жарко 1015.9 1011.7
02 16.07 Ю 2 20 км н/о +22.2 +16.0 68 +26 +26 душно 1015.3 1011.1
03 16.07 ЮВ 1 20 км н/о +22.0 +15.8 68 +26 +26 душно 1015.0 1010.8
04 16.07 Ю 1 20 км н/о +21.7 +15.5 68 +25 +25 комфорт 1014.7 1010.5
05 16.07 Ю 2 20 км н/о +21.6 +15.9 70 +25 +25 комфорт 1014.9 1010.7
06 16.07 Ю 2 20 км н/о +21.4 +15.9 71 +25 +25 комфорт 1015.2 1011.0 +21.4
07 16.07 Ю 1 20 км н/о +21.6 +16.1 71 +25 +25 комфорт 1015.1 1010.9
08 16.07 Ю 2 20 км н/о +23.9 +16.4 63 +27 +27 жарко 1015.4 1011.2
09 16.07 В 2 20 км н/о +25.4 +16.0 56 +29 +29 душно 1015.7 1011.6
10 16.07 В 4 20 км н/о +25.9 +16.2 55 +29 +29 душно 1016.2 1012.1
11 16.07 В 5 20 км н/о +26.5 +15.5 51 +30 +30 душно 1016.3 1012.2
12 16.07 В 4 20 км н/о +26.9 +15.6 50 +30 +30 душно 1016.3 1012.2
13 16.07 В 4 20 км н/о +27.4 +15.4 48 +30 +30 жарко 1016.1 1012.0
14 16.07 СВ 3 20 км н/о +28.0 +15.3 46 +31 +31 душно 1015.7 1011.6
15 16.07 СВ 3 20 км н/о +28.4 +15.7 46 +31 +31 душно 1015.4 1011.3
17 16.07 В 4 20 км н/о +27.3 +16.3 51 +31 +31 душно 1016.0 1011.9
18 16.07 В 3 20 км н/о +26.3 +15.7 52 +29 +29 жарко 1016.2 1012.1 +28.6
19 16.07 В 4 20 км н/о +24.9 +15.5 56 +28 +28 жарко 1016.6 1012.4
20 16.07 СВ 4 20 км н/о +23.6 +15.9 62 +27 +27 жарко 1017.0 1012.8
21 16.07 В 1 20 км н/о +23.1 +16.2 65 +28 +28 душно 1017.4 1013.2
22 16.07 ЮВ 1 20 км н/о +23.0 +15.8 64 +27 +27 душно 1017.9 1013.7
23 16.07 ЮЗ 2 20 км н/о +22.9 +16.2 66 +27 +27 душно 1018.4 1014.2

 

Местоположение метеостанции Санта-Круз-де-Тенерифе (Канарские Острова): широта 28.45 долгота -16.25 высота над уровнем моря 36 м.

В архиве по умолчанию представлена погода в Санта-Круз-де-Тенерифе за последнюю неделю. Архивные данные за месяц целиком и за предыдущие месяцы, начиная с января 2011 года, Вы можете получить, выбрав интересующий диапазон дат из раскрывающегося списка и нажав кнопку "Ввод!".


*Определитесь, кто Вы:
робот инопланетянин человек

Внимание! Время в таблицах - всемирное. Для получения местного времени необходимо прибавить поправку, которая равна 0 ч.

Смотрите также архив погоды в соседних городах и на ближайших метеорологических станциях:

Погода на Тенерифе (Канарские Острова) (6 км)
Погода в Тенерифе-Гуимаре (Канарские Острова) (19 км)
Погода в Пуэрто-де-ла-Крус (Канарские Острова) (30 км)
Погода в Обсерватории Izana (Канарские Острова) (30 км)
Погода в Аэропорту Рейна-София (Канарские Острова) (54 км)
Погода в Пуэрто-де-Могане (Канарские Острова) (85 км)
Погода в Лас-Пальмас-де-Гран-Канарии 2 (Канарские Острова) (89 км)
Погода в Лас-Пальмас-де-Гран-Канарии (Канарские Острова) (91 км)
Погода в Сан-Себастьян-де-ла-Гомера (Канарские Острова) (93 км)
Погода в Аэропорту Гран-Канария (Канарские Острова) (103 км)

Пояснения к столбцам:

Ветер - указаны скорость ветра в м/с - средняя за 10 мин, порывы в срок и между сроками (в фигурных скобках) и направление, откуда дует ветер: С - северный, СВ - северо-восточный, В - восточный, ЮВ - юго-восточный, Ю - южный, ЮЗ - юго-западный, З - западный, СЗ - северо-западный.
Видимость - горизонтальная дальность видимости в метрах или километрах. При видимости от 1 до 10 км при отсутствии осадков обычно наблюдается дымка, при ухудшении видимости до 1 км и менее - туман. В сухую погоду видимость может ухудшаться дымом, пылью или мглою.
Явления - указаны атмосферные явления, наблюдавшиеся в срок или в последний час перед сроком; фигурными скобками обозначены явления, наблюдавшиеся между сроками (за 1-3 часа до срока); квадратными скобками обозначены град или гололедные отложения с указанием их диаметра в мм.
Облачность - указаны через наклонную черту общая и нижняя облачность в баллах и высота нижней границы облаков в метрах; квадратными скобками обозначены формы облаков: Ci - перистые, Cs - перисто-слоистые, Cc - перисто-кучевые, Ac - высококучевые, As - высокослоистые, Sc - слоисто-кучевые, Ns - слоисто-дождевые, Cu - кучевые, Cb - кучево-дождевые. Подробнее классификацию облаков см. в Атласе облаков (PDF).
T - Температура воздуха - температура, измеренная на высоте 2 м над землей.
Td - Температура точки росы - температура, при понижении до которой содержащийся в воздухе водяной пар достигнет насыщения.
f - Относительная влажность воздуха - влажноcть воздуха, измеренная на высоте 2 м над землей.
Te - Эффективная температура - температура, которую ощущает одетый по сезону человек в тени. Характеристика душности погоды. При расчете учитывается влияние влажности воздуха и скорости ветра на теплоощущения человека.
Tes - Эффективная температура на солнце - температура, которую ощущает человек, с поправкой на солнечный нагрев. Характеристика знойности погоды. Зависит от высоты солнца над горизонтом, облачности и скорости ветра. Ночью, в пасмурную погоду, а также при ветре 12 м/с и более поправка равна нулю.
P - Атмосферное давление - приведенное к уровню моря атмосферное давление.
Po - Атмосферное давление - измеренное на уровне метеостанции атмосферное давление.
Tmin - Минимальная температура - минимум температуры воздуха на высоте 2 м над землей.
Tmax - Максимальная температура - максимум температуры воздуха на высоте 2 м над землей.
R - Количество осадков - Количество выпавших осадков за период времени, мм. При наведении курсора мыши на число - период времени, за который выпало указанное количество осадков.
R24 - Количество осадков - Количество выпавших осадков за 24 часа, мм.
S - Снежный покров - Высота снежного покрова, см. При наведении курсора мыши на число - состояние снежного покрова и степень покрытия местности в баллах.